Theta_e
310 310 310 310 311 311 310 309 310 310 310 313 312 313 313 313 310 308 308 310 309 305 309 310 310 309 307 306 304 303 301 300 300 299 298 298 297 297 297 296 295 295 293 292
311 310 309 309 309 310 311 312 312 311 311 310 311 312 312 311 312 312 311 311 310 310 310 309 306 307 305 306 304 302 301 300 300 299 298 296 296 296 297 296 295 294 293 292
311 310 311 310 310 311 310 311 312 312 310 308 308 311 310 309 311 312 311 311 311 310 310 310 302 304 305 304 302 301 301 301 300 298 297 296 296 295 295 295 294 294 293 292
309 310 311 311 312 311 312 310 311 311 311 312 309 313 310 309 309 309 310 310 310 310 310 309 302 301 303 303 302 300 299 299 299 298 297 296 295 295 294 293 293 293 293 292
309 311 310 311 312 310 313 310 310 310 309 310 312 312 311 309 310 310 310 309 309 310 308 307 303 303 303 302 301 299 299 298 298 298 297 296 295 295 294 293 293 293 292 292
309 309 309 309 309 308 309 311 310 307 308 314 311 311 311 310 311 310 310 310 309 309 310 303 302 303 302 302 300 298 298 297 297 296 296 296 295 294 293 293 293 292 292 291
307 307 308 309 311 309 310 310 311 310 311 314 308 310 313 310 309 309 309 308 308 308 308 301 300 300 299 298 298 297 297 296 296 296 296 296 296 295 294 293 292 292 291 291
308 310 307 307 309 309 309 310 312 310 313 313 307 311 311 309 309 308 307 308 307 304 303 302 300 300 298 298 297 297 296 296 295 296 296 295 295 294 293 293 292 292 292 291
308 309 308 307 308 309 308 310 310 310 295 306 310 309 310 307 308 307 307 306 302 302 302 302 300 298 298 297 297 297 296 296 295 295 294 294 294 294 293 292 292 292 292 292
309 310 309 307 306 307 308 307 311 310 311 309 311 310 312 311 310 308 306 305 303 302 301 301 299 297 298 298 297 297 297 296 296 295 295 294 294 294 293 292 292 291 291 291
309 312 311 308 307 310 307 308 308 309 313 316 317 314 313 311 307 306 307 305 303 302 301 301 301 299 299 299 299 297 297 296 296 295 295 294 294 293 293 292 292 292 291 291
311 314 317 315 310 306 306 309 310 313 314 312 314 315 313 313 311 310 310 305 304 302 301 300 300 299 298 298 297 298 297 296 297 296 294 294 293 293 292 292 292 291 291 290
313 317 320 317 314 312 314 312 309 310 311 313 315 315 312 311 310 309 303 304 306 303 301 301 301 300 299 299 297 297 296 297 296 295 294 293 293 292 292 291 291 291 290 290
315 317 319 320 318 313 312 311 311 310 312 313 312 311 310 311 311 311 310 310 309 307 306 308 305 301 300 300 299 297 297 297 296 295 294 293 292 292 291 290 290 290 289 289
313 317 316 316 316 315 315 315 315 314 311 311 311 312 311 310 311 312 310 310 307 307 306 305 303 303 300 298 298 297 297 298 297 295 293 292 292 290 290 289 289 289 288 289
305 311 313 315 314 314 315 314 314 314 314 315 314 315 313 312 312 312 312 312 311 311 310 310 305 303 300 300 300 300 298 298 296 293 292 292 290 289 288 287 287 287 287 286
303 307 308 309 310 312 314 315 314 313 313 314 316 315 312 312 312 311 310 308 304 301 300 301 302 301 299 299 300 298 299 298 295 293 292 291 289 287 286 285 285 284 284 284
302 302 303 306 306 309 309 311 312 312 312 312 311 305 304 304 306 307 300 299 299 299 299 297 296 296 297 298 298 299 298 296 293 292 291 289 288 286 285 283 282 282 282 282
299 301 306 308 310 310 312 308 305 309 308 301 301 299 298 297 300 300 297 296 296 296 297 295 294 294 295 295 293 294 294 292 291 290 290 288 286 284 282 281 281 280 280 279
294 297 304 305 307 309 301 299 296 298 308 294 298 297 296 295 295 296 295 294 294 295 294 293 294 292 293 295 292 290 289 288 287 288 287 285 285 283 281 281 280 279 279 278
285 285 291 295 299 301 294 293 294 306 296 292 295 293 293 293 294 294 294 294 293 293 293 294 294 292 291 293 290 288 286 286 287 287 287 285 283 282 281 280 279 278 278 277
288 289 292 292 291 295 291 290 289 290 293 294 292 292 291 290 290 291 291 291 291 292 292 292 292 293 293 293 290 287 285 287 285 286 285 283 282 281 280 279 277 277 276 276
288 291 291 291 290 290 290 291 290 293 289 289 289 289 287 287 287 288 288 289 289 289 290 290 290 291 291 293 291 284 288 286 284 283 282 281 280 279 278 277 276 276 276 276
285 287 286 287 287 288 288 288 290 288 288 287 285 283 283 284 285 284 284 284 284 284 285 286 287 288 289 291 291 290 290 287 284 281 280 279 279 277 277 276 276 276 275 275
287 288 287 287 288 288 287 288 286 285 284 282 282 282 282 281 280 281 281 281 281 282 282 282 283 284 285 286 288 289 288 288 282 281 280 278 277 276 276 276 275 276 275 276
288 288 288 287 287 287 288 287 283 281 279 279 279 279 279 279 279 278 278 279 278 278 277 276 276 277 279 280 282 285 288 286 283 280 278 276 276 275 275 275 274 276 275 276
Wind_Speed
4 4 10 21 17 15 2 6 7 8 6 5 10 17 19 21 11 12 15 18 17 16 24 25 29 36 37 39 41 45 46 49 49 46 44 40 43 40 38 36 34 31 29 27
2 11 17 7 6 9 12 17 21 19 19 7 16 23 17 13 19 19 17 20 21 18 20 18 23 30 35 44 46 45 48 49 52 49 46 33 38 43 41 37 36 34 32 30
15 10 12 12 9 11 13 14 19 17 6 6 11 22 15 11 21 23 22 21 20 20 21 21 10 25 32 34 42 46 50 53 53 48 42 34 30 31 38 40 40 38 35 32
9 10 14 7 8 15 16 13 15 14 3 11 3 26 6 7 14 13 17 18 18 20 21 18 10 13 27 38 40 42 45 48 49 50 45 42 35 28 35 35 43 40 36 34
9 3 5 10 20 10 13 5 6 3 5 5 7 8 4 11 11 13 16 14 17 20 15 19 14 19 32 31 40 42 44 46 46 51 48 45 34 33 27 34 37 39 38 36
12 3 6 10 5 8 1 3 4 4 2 12 12 11 1 6 10 6 10 16 16 17 21 11 12 17 21 30 33 36 40 43 45 47 46 46 40 34 32 34 37 41 41 39
3 7 5 5 4 3 4 5 4 4 1 12 9 9 23 6 6 11 13 13 15 16 16 5 9 10 19 29 33 35 38 37 45 48 50 50 47 45 44 43 41 40 43 45
2 14 9 5 11 9 11 11 7 8 12 19 4 10 11 13 11 10 12 12 13 11 8 10 11 10 16 24 28 31 36 35 42 48 49 47 47 43 43 42 42 43 45 47
5 14 2 5 3 9 4 7 16 2 1 1 7 14 13 7 8 8 11 12 12 12 9 9 6 8 17 25 32 35 33 34 41 44 40 42 46 45 45 42 44 44 43 42
5 12 7 2 2 3 7 4 2 2 3 7 9 6 14 16 14 10 10 12 12 9 9 8 6 8 17 20 25 31 34 39 38 40 43 44 46 47 44 42 45 44 42 40
2 2 18 1 7 12 1 4 4 3 5 14 18 15 28 16 9 7 11 9 9 10 10 8 7 8 16 21 27 32 35 34 35 41 42 39 44 46 45 46 45 45 42 40
5 6 10 25 14 3 4 12 12 12 13 11 17 19 27 32 25 19 24 15 7 6 9 8 7 6 13 18 26 35 36 41 48 45 41 45 42 44 42 46 47 45 43 40
6 3 6 3 9 13 13 22 16 17 18 25 22 21 28 24 24 17 12 12 14 9 8 6 6 8 9 17 23 28 30 39 36 38 41 39 41 44 46 46 47 45 42 40
10 18 17 21 21 11 8 11 22 22 17 24 23 25 23 32 28 31 18 19 18 13 12 16 12 10 8 17 23 25 29 39 38 38 39 40 44 49 46 43 44 43 42 41
9 22 22 24 30 29 30 30 27 26 27 25 26 30 25 28 32 31 16 18 8 12 12 11 10 10 10 11 21 25 33 31 40 38 37 40 42 40 40 42 43 42 42 43
7 7 12 20 22 25 28 29 32 34 36 36 36 34 28 29 27 29 26 24 19 15 13 15 18 15 13 12 19 25 28 34 37 33 36 35 35 38 39 40 41 41 42 44
11 9 11 23 19 18 21 26 33 33 33 28 30 34 26 27 26 24 20 14 16 15 16 19 15 13 11 19 27 24 31 32 34 34 32 34 35 35 37 37 37 39 42 44
19 21 12 18 24 31 24 15 24 31 32 32 22 17 18 19 20 11 19 18 18 17 16 15 14 15 23 27 29 28 27 29 30 27 27 32 34 33 34 35 35 34 38 42
22 20 9 12 20 22 12 7 9 9 3 13 13 15 19 24 19 11 22 19 16 16 13 12 17 18 25 29 32 26 20 20 21 22 27 31 32 31 33 33 34 35 36 35
16 12 13 18 22 25 5 13 18 13 11 21 13 16 18 20 14 14 23 21 21 18 17 18 26 22 23 29 27 21 14 11 11 12 15 22 27 29 30 31 32 33 33 31
4 5 6 12 16 9 12 16 16 7 11 20 11 16 16 13 9 19 20 16 16 16 21 28 26 18 22 35 29 16 13 8 7 9 15 18 22 23 24 26 27 30 29 28
5 4 9 4 4 10 21 17 6 11 11 8 9 9 13 15 20 18 18 19 17 17 17 24 26 25 24 29 25 22 14 10 8 9 11 16 19 22 25 28 26 29 29 28
4 5 3 3 7 19 13 7 14 1 4 5 9 12 13 14 15 15 14 16 17 18 15 24 24 28 29 25 22 18 23 16 9 12 17 18 19 22 26 28 27 25 26 25
4 8 3 5 7 13 16 15 8 4 9 9 5 9 12 14 14 16 16 16 15 15 16 25 25 19 20 26 26 26 27 19 17 18 18 19 27 27 29 29 29 26 26 24
7 2 6 10 17 18 12 9 3 8 3 9 12 12 12 11 16 15 16 17 16 16 21 25 21 21 26 28 28 30 29 23 21 21 19 20 21 24 26 30 32 32 33 37
13 18 12 15 18 14 17 12 7 3 7 8 11 14 16 14 17 16 15 15 15 16 24 23 27 29 29 27 30 32 26 27 23 19 18 21 21 21 23 21 15 23 24 30
Wind_Direction
196 136 207 222 212 234 206 228 243 256 247 225 230 236 248 265 263 253 254 254 252 245 253 251 239 232 220 217 211 210 202 205 204 203 202 205 208 212 214 217 217 215 214 211
160 214 225 235 210 222 243 257 262 270 264 214 260 259 249 249 261 257 248 258 252 251 258 252 224 218 208 213 210 202 201 200 202 201 202 200 203 212 215 215 218 217 216 214
221 225 214 218 230 241 229 233 253 256 301 249 289 271 251 244 250 264 263 250 258 248 249 255 209 210 208 203 200 198 199 202 201 199 197 199 205 212 214 216 218 216 216 216
239 240 217 189 217 216 257 227 254 261 283 274 126 294 196 231 244 243 252 257 245 248 252 257 211 202 202 208 204 200 196 197 198 201 197 193 196 200 214 211 215 215 216 216
242 209 190 222 234 181 253 167 233 217 215 338 182 266 160 203 250 247 253 248 257 259 246 243 221 210 211 199 198 196 194 197 195 201 202 199 202 208 209 209 217 217 217 218
241 201 189 211 194 206 96 59 37 65 122 265 203 210 98 180 213 241 252 254 249 254 261 241 217 209 198 197 192 190 191 194 196 200 202 205 205 206 205 207 211 217 217 216
312 227 214 163 225 141 132 92 298 320 9 255 191 216 251 274 216 215 238 256 253 252 254 244 191 192 181 185 186 186 189 193 196 202 206 210 211 212 213 211 208 210 213 215
262 290 176 179 201 193 207 189 182 206 253 270 109 249 265 220 237 228 236 257 269 281 240 216 209 192 184 187 189 188 192 195 198 205 208 210 212 212 215 218 214 217 218 218
209 268 166 198 163 153 175 177 233 317 108 5 248 275 287 229 269 310 278 280 264 264 259 243 220 191 184 186 191 194 196 200 203 207 206 210 213 214 217 218 222 223 224 222
279 268 230 152 121 277 186 165 115 184 206 248 268 250 260 284 285 290 295 301 298 312 288 270 230 203 203 198 197 200 204 206 208 209 210 212 216 218 219 220 223 223 224 223
76 325 269 168 211 235 185 247 229 184 197 246 261 264 278 278 274 261 298 288 293 305 286 248 240 229 217 211 208 209 210 211 212 216 215 212 216 219 218 223 226 226 225 221
170 176 238 263 261 301 271 265 242 237 246 235 254 256 263 269 270 272 288 289 296 282 263 280 229 201 214 215 213 215 213 214 219 218 215 218 218 220 216 221 226 226 223 221
182 220 267 261 289 251 233 247 241 255 258 251 254 253 257 269 271 262 242 264 285 282 289 263 254 236 224 220 221 220 217 221 219 214 218 216 219 221 220 221 223 223 220 217
242 249 239 254 264 278 267 224 238 242 255 254 247 260 262 271 265 271 265 269 273 272 269 273 272 244 235 230 223 217 226 227 225 222 217 215 216 221 219 216 219 218 216 212
244 241 235 244 251 254 257 265 259 252 247 250 254 251 248 256 270 276 281 284 278 280 275 283 281 275 250 229 242 233 230 231 229 218 214 216 218 216 213 214 216 215 212 211
314 287 297 283 272 257 250 248 252 261 260 260 261 260 261 260 266 277 279 282 286 278 275 272 262 255 255 250 245 244 241 236 228 214 215 215 210 209 207 207 208 208 206 205
268 273 283 279 288 297 278 259 259 258 261 257 259 257 267 268 263 270 297 360 26 13 7 349 319 283 273 265 258 252 252 243 222 216 216 209 203 199 201 201 200 199 197 200
253 265 258 273 274 269 273 240 239 251 258 266 289 4 5 344 320 349 33 15 358 343 345 340 337 337 331 318 308 296 274 249 223 213 205 204 200 194 192 192 192 191 193 195
230 244 266 257 259 279 284 7 349 337 55 27 360 6 0 353 328 59 15 358 334 327 313 308 303 318 325 328 329 316 284 232 216 208 206 202 196 187 185 185 185 185 187 187
315 296 270 284 281 274 44 4 317 296 220 360 346 2 360 356 345 327 334 325 320 322 320 319 316 321 326 326 330 317 296 251 220 214 210 203 197 192 187 185 182 182 187 185
335 328 270 278 275 275 17 5 334 280 329 326 336 345 339 338 317 306 314 316 313 323 323 325 322 318 319 331 322 302 290 255 248 249 221 207 202 196 191 180 178 176 177 176
285 286 300 327 309 252 6 344 351 289 311 299 335 322 321 319 310 306 305 306 306 305 313 317 311 311 320 325 315 302 296 285 254 208 204 196 193 192 188 183 175 175 172 168
269 199 234 195 255 294 308 290 301 332 311 331 319 317 321 311 300 308 308 309 308 310 314 310 308 308 313 314 305 278 295 294 245 201 192 192 192 195 193 182 172 171 174 175
269 258 220 297 259 271 289 291 262 341 327 319 293 296 304 303 309 313 310 302 301 304 310 309 305 304 303 305 305 294 294 284 256 234 211 194 187 187 190 189 182 180 180 183
233 275 241 268 280 278 273 284 357 307 319 317 315 309 304 311 301 306 304 305 306 310 314 306 307 308 303 308 306 298 289 275 241 236 224 202 194 191 187 191 190 192 196 191
243 250 257 262 274 288 287 302 340 287 311 303 290 295 298 303 297 300 292 294 301 300 305 305 299 294 298 305 303 303 301 271 240 220 216 210 197 193 189 192 197 210 200 195